| time (UTC) | temp F | wind direction | speed knots | gust knots | rain 1hr in | rain 24hr in | rain mn in | humidity % | barometer mb |
| 20260503050001 | 38 | 307 | 1.7 | 7.0 | 0.00 | 0.00 | 0.00 | 67 | 1014.1 |
| 20260503044503 | 39 | 309 | 0.9 | 11.3 | 0.00 | 0.00 | 0.00 | 67 | 1014.1 |
| 20260503043000 | 39 | 309 | 1.7 | 6.1 | 0.00 | 0.00 | 0.00 | 67 | 1014.2 |
| 20260503041458 | 39 | 209 | 1.7 | 8.7 | 0.00 | 0.00 | 0.00 | 66 | 1013.9 |
| 20260503040005 | 39 | 307 | 4.3 | 7.0 | 0.00 | 0.00 | 0.00 | 65 | 1013.7 |
| 20260503034500 | 39 | 193 | 2.6 | 12.2 | 0.00 | 0.00 | 0.00 | 65 | 1013.8 |
| 20260503033003 | 39 | 309 | 4.3 | 7.8 | 0.00 | 0.00 | 0.00 | 65 | 1013.7 |
| 20260503031459 | 40 | 266 | 4.3 | 11.3 | 0.00 | 0.00 | 0.00 | 63 | 1013.6 |
| 20260503030003 | 40 | 326 | 1.7 | 6.1 | 0.00 | 0.00 | 0.00 | 63 | 1013.9 |
| 20260503024500 | 40 | 359 | 2.6 | 7.0 | 0.00 | 0.00 | 0.00 | 62 | 1013.9 |
| 20260503023002 | 40 | 326 | 2.6 | 8.7 | 0.00 | 0.00 | 0.00 | 61 | 1013.7 |
| 20260503020000 | 40 | 339 | 3.5 | 7.0 | 0.00 | 0.00 | 0.00 | 60 | 1013.7 |
| 20260503013000 | 41 | 321 | 1.7 | 7.8 | 0.00 | 0.00 | 0.00 | 60 | 1013.5 |
| 20260503011459 | 41 | 341 | 3.5 | 7.0 | 0.00 | 0.00 | 0.00 | 58 | 1013.5 |
| 20260503010000 | 42 | 26 | 2.6 | 6.1 | 0.00 | 0.00 | 0.00 | 59 | 1013.3 |
| 20260503003001 | 43 | 140 | 2.6 | 7.0 | 0.00 | 0.00 | 0.00 | 57 | 1013.1 |
| 20260503001502 | 43 | 344 | 2.6 | 8.7 | 0.00 | 0.00 | 0.00 | 56 | 1012.9 |
| 20260503000006 | 44 | 318 | 2.6 | 8.7 | 0.00 | 0.00 | 0.00 | 55 | 1012.8 |
| 20260502234459 | 44 | 198 | 3.5 | 8.7 | 0.00 | 0.00 | 0.00 | 54 | 1012.6 |
| 20260502230016 | 46 | 296 | 2.6 | 10.4 | 0.00 | 0.00 | 0.00 | 52 | 1012.1 |
| 20260502224502 | 47 | 210 | 2.6 | 11.3 | 0.00 | 0.00 | 0.00 | 51 | 1012.1 |
| 20260502223002 | 47 | 210 | 3.5 | 7.0 | 0.00 | 0.00 | 0.00 | 52 | 1012.1 |
| 20260502220009 | 48 | 76 | 1.7 | 10.4 | 0.00 | 0.00 | 0.00 | 50 | 1011.9 |
| 20260502213010 | 48 | 340 | 3.5 | 11.3 | 0.00 | 0.00 | 0.00 | 47 | 1011.6 |
| 20260502211512 | 49 | 214 | 2.6 | 7.8 | 0.00 | 0.00 | 0.00 | 47 | 1011.5 |
| 20260502204509 | 50 | 11 | 4.3 | 9.6 | 0.00 | 0.00 | 0.00 | 48 | 1011.4 |
| 20260502203001 | 50 | 172 | 5.2 | 12.2 | 0.00 | 0.00 | 0.00 | 46 | 1011.5 |
| 20260502201500 | 51 | 309 | 3.5 | 9.6 | 0.00 | 0.00 | 0.00 | 49 | 1011.7 |
| 20260502200012 | 53 | 236 | 2.6 | 7.8 | 0.00 | 0.00 | 0.00 | 42 | 1011.7 |
| 20260502193018 | 54 | 336 | 2.6 | 13.0 | 0.00 | 0.00 | 0.00 | 43 | 1011.6 |
| 20260502190016 | 52 | 234 | 0.9 | 7.0 | 0.00 | 0.00 | 0.00 | 46 | 1011.6 |
| 20260502181505 | 51 | 5 | 0.9 | 6.1 | 0.00 | 0.00 | 0.00 | 46 | 1011.9 |
| 20260502161457 | 46 | 18 | 0.9 | 5.2 | 0.00 | 0.00 | 0.00 | 56 | 1013.2 |
| 20260502123002 | 39 | 238 | 2.6 | 11.3 | 0.00 | 0.00 | 0.00 | 64 | 1013.0 |
| 20260502114501 | 39 | 286 | 1.7 | 8.7 | 0.00 | 0.00 | 0.00 | 62 | 1012.8 |
| 20260502113003 | 39 | 316 | 1.7 | 9.6 | 0.00 | 0.00 | 0.00 | 61 | 1012.5 |
| 20260502111458 | 39 | 302 | 2.6 | 7.0 | 0.00 | 0.00 | 0.00 | 62 | 1012.5 |
| 20260502104457 | 40 | 340 | 2.6 | 8.7 | 0.00 | 0.00 | 0.00 | 61 | 1012.5 |
| 20260502103011 | 40 | 44 | 3.5 | 7.0 | 0.00 | 0.00 | 0.00 | 58 | 1012.4 |
| 20260502101457 | 40 | 307 | 4.3 | 8.7 | 0.00 | 0.00 | 0.00 | 58 | 1012.6 |
| 20260502091500 | 41 | 342 | 1.7 | 8.7 | 0.00 | 0.00 | 0.00 | 67 | 1012.7 |
| 20260502071457 | 43 | 326 | 4.3 | 13.0 | 0.00 | 0.00 | 0.00 | 80 | 1012.4 |
| 20260502070000 | 43 | 292 | 4.3 | 10.4 | 0.00 | 0.00 | 0.00 | 79 | 1012.5 |
| 20260502064456 | 43 | 252 | 2.6 | 13.0 | 0.00 | 0.00 | 0.00 | 78 | 1012.5 |
| 20260502063008 | 43 | 1 | 2.6 | 12.2 | 0.00 | 0.00 | 0.00 | 77 | 1012.7 |
| 20260502061458 | 44 | 306 | 4.3 | 13.0 | 0.00 | 0.00 | 0.00 | 76 | 1012.8 |
| 20260502060006 | 44 | 62 | 2.6 | 7.8 | 0.00 | 0.00 | 0.00 | 76 | 1013.0 |
| 20260502054459 | 44 | 128 | 3.5 | 10.4 | 0.00 | 0.00 | 0.00 | 75 | 1013.1 |
| 20260502053004 | 45 | 314 | 3.5 | 9.6 | 0.00 | 0.00 | 0.00 | 76 | 1013.0 |
| 20260502051506 | 45 | 199 | 3.5 | 10.4 | 0.00 | 0.00 | 0.00 | 76 | 1013.1 |